DECAYED
Showing default

FLOCK 4BE 16, 60483 (Decayed)

Orbit data source: Space-Track

FLOCK 4BE 16, 60483 was a payload satellite owned by Planet (US) in LEO that was launched on Fri, 16 Aug 2024 UTC via an FALCON 9 launch vehicle from the Air Force Western Test Range (AFWTR). Payload-class satellites include a variety of spacecraft equipped with specific instruments for various scientific and technological missions. These include communications satellites like Starlink; space stations such as the ISS; scientific satellites like the Hubble; Earth observation satellites from companies like Planet Labs, Umbra, and HawkEye 360; GPS; miniature CubeSats for education and research; and military/defense satellites.

Not visible in the next 10 days
Identifier
60483, 2024-149R
Orbit
Decayed
Country
Flag of USUS
Related business
Manufacturer
Planet
Mission
Decayed Commercial Imaging
Bus & Motor
CUBESAT 3U, Unknown motor
Mass
5.7 kg wet, 5.7 kg dry
Launch date (UTC)
2024-08-16 (2 years ago)
Launch vehicle
FALCON 9
Launch site
Air Force Western Test Range (AFWTR)
Object type
Payload
Rocket body
Debris
Shape & HBR
Box + 2 Pan, 1.0 m
Radar Cross Section
0.072 m², Medium (>0.1 m² and < 1m²)

Expand to show TLE details & history
Last TLE update: 5 months ago

TLE from 5 months ago
0 FLOCK 4BE 16
1 60483U 24149R   26115.38234299  .09799825  25051-5  10077-2 0  9990
2 60483  97.3525 204.6221 0014776 220.0110 140.0101 16.37549160 94565
Epoch: 2026-04-25T09:10Z
TLE epoch observation values (Epoch: 2026-04-25T09:10:34.434Z)
Latitude
0.00001°
Longitude
-146.42289°
Altitude
183.003 km
Speed
7.792 km/s
True Right ascension
13h 38m 29s
True Declination
0° 00' 00"
Sunlit
Object was in full shadow at epoch
Visualization orbit readout
Latitude
Unknown
Longitude
Unknown
Altitude
Unknown
Speed
Unknown
Apparent Right ascension
Unknown
Apparent Declination
Unknown
Sunlit
N/A
Visualization observer readout
Local Sidereal Time
02:53:49
Azimuth
Unknown
Elevation
Unknown
Doppler factor
Unknown
Orbital elements
Apogee altitude
178.813 km
Perigee altitude
159.465 km
Semi-major axis
6,547.276 km
Eccentricity
0.00148
Inclination
97.3525°
RAAN
204.6221°
Arg. of periapsis
220.011°
True anomaly
140.11876°
Mean anomaly
140.0101°
Eccentric anomaly
140.06445°
Mean motion
4.09687 °/min
Orbital period
87.87 mins
BSTAR
0.0010077
Loading maneuver chart data...
Computing Atmospheric mass density...
Loading historical data...
Loading historical data...
Loading historical data...
Loading historical data...
Loading historical data...
Loading historical data...
Loading historical data...

Documentation

Showing up to 5 results
|